Regional Weather Roundup
Issued by NWS

Home | Current Version | Previous Version | Graphics & Text | Print | Product List | Glossary On
Versions: 1 2 3 4 5 6 7 8 9 10 11 12 13 14 15 16 17 18 19 20 21 22 23 24 25 26 27 28 29 30 31 32 33 34 35 36 37 38 39 40 41 42 43 44 45 46 47 48 49 50
000
ASUS45 KSLC 271710
RWRUT

UTAH REGIONAL WEATHER ROUNDUP
NATIONAL WEATHER SERVICE SALT LAKE CITY UT
1100 AM MDT TUE JUN 27 2017

UTZ001>011-023>025-271800-

NORTHERN UTAH

CITY           SKY/WX    TMP DP  RH WIND       PRES   REMARKS
BRIGHAM CITY   SUNNY     81  40  23 S6        29.94F
DUGWAY         MOSUNNY   84  28  13 NW13G20   29.97
HILL AFB       SUNNY     81  44  27 W9        29.98R
LOGAN          SUNNY     81  44  27 S5        29.94S
OGDEN          SUNNY     83  43  24 W10       29.96R
SALT LAKE CITY MOSUNNY   86  43  22 CALM      29.93S
TOOELE VALLEY  SUNNY     82  46  28 N6        29.96S
WENDOVER         N/A     84  28  13 NW15      29.98R
HEBER CITY     SUNNY     81  36  19 N6        30.02S
WEST JORDAN    SUNNY     82  56  41 CALM      29.97S

$$

UTZ011>015-024>027-271800-

CENTRAL/NORTHEAST UTAH

CITY           SKY/WX    TMP DP  RH WIND       PRES   REMARKS
PROVO AIRPORT  SUNNY     83  31  15 VRB5      29.97S
MOAB/CANYONLAN SUNNY     92  14   5 SW16      29.90F
DELTA          SUNNY     82  28  14 NW7       29.99S
PRICE          SUNNY     82  21  10 VRB5      30.02F
VERNAL         SUNNY     80  40  23 NE6       29.98S

$$

UTZ013>016-019>022-027-271800-

SOUTHERN UTAH

CITY           SKY/WX    TMP DP  RH WIND       PRES   REMARKS
BRYCE CANYON   SUNNY     75  20  12 SE12      30.21F
CEDAR CITY     SUNNY     85  16   7 SW15      30.05S
MILFORD        SUNNY     86  16   7 S15       30.00F
ST GEORGE      SUNNY     88  26  10 NW5       29.90F
HANKSVILLE     SUNNY     91  19   7 W9        29.94F
BLANDING       SUNNY     82  35  18 SE12      30.18F

$$

REGIONAL REPORTS     COLORADO/ARIZONA

CITY           SKY/WX    TMP DP  RH WIND       PRES   REMARKS
CRAIG, CO      SUNNY     84  28  13 SW15G26   30.02F
GRAND JUNCTION SUNNY     90  27  10 W7        29.95F
RIFLE, CO      SUNNY     83  31  15 NW8       30.00F
MONTROSE, CO   SUNNY     87  22   9 W14       30.06F
CORTEZ, CO     SUNNY     83  37  19 SW10      30.13F
COLORADO CITY    N/A     88  23   9 SW5       30.06F
PAGE, AZ       SUNNY     91  27  10 N5        29.96F
GRAND CANYON   SUNNY     80  17   9 SW21G28   30.19F
KINGMAN, AZ    SUNNY     90  25   9 S16G28    29.96F
FLAGSTAFF, AZ  SUNNY     76  23  14 SW20G29   30.23F

$$

REGIONAL REPORTS    NEVADA/IDAHO/WYOMING

CITY           SKY/WX    TMP DP  RH WIND       PRES   REMARKS
LAS VEGAS, NV  SUNNY     94  15   5 CALM      29.84F
ELY, NY        SUNNY     77  25  14 MISG      30.12F
ELKO, NV       SUNNY     78  31  17 W9        30.07F
POCATELLO, ID  SUNNY     73  50  44 W18       29.98F
BURLEY, ID     SUNNY     73  50  44 W14G24    29.97R
FORT BRIDGER,    N/A     72  41  32 S12       30.13F
EVANSTON, WY   SUNNY     70  44  39 S12       30.12F
ROCK SPRINGS,  SUNNY     74  37  26 NW28G37   30.08S
KEMMERER, WY     N/A     68  39  34 W17       30.11R

$$



USA.gov is the U.S. government's official web portal to all federal, state and local government web resources and services.